Casper, WY (82601)

6:12 AM MST on February 12, 2016 (GMT -0700)
Casper Mountain Foothills | | Change Station
CLOSE
Current Station
Personal Weather Station
Location: Casper, WY
Elevation: 5334 ft
Nearby Weather Stations

Elev 5334 ft 42.83 °N, 106.31 °W | Updated 2 minutes ago

Clear
Clear
34.3 °F
Feels Like 34 °F
N
0.0
Wind Variable Wind from ESE
Gusts 0.0 mph

Today
High -- | Low -- °F
--% Chance of Precip.
Yesterday
High -- | Low -- °F
Precip. -- in
Pressure 30.31 in
Visibility 10.0 miles
Clouds Mostly Cloudy 8500 ft
Windchill 34 °F
Dew Point 25 °F
Humidity 68%
Rainfall 0.00 in
Snow Depth Not available.
7:07 AM 5:32 PM
Waxing Crescent, 20% visible
METAR KCPR 121253Z 32006KT 10SM BKN085 00/M04 A3027 RMK AO2 SLP264 T00001039
Pressure 30.31 in
Visibility 10.0 miles
Clouds Mostly Cloudy 8500 ft
Windchill 34 °F
Dew Point 25 °F
Humidity 68%
Rainfall 0.00 in
Snow Depth Not available.
7:07 AM 5:32 PM
Waxing Crescent, 20% visible
METAR KCPR 121253Z 32006KT 10SM BKN085 00/M04 A3027 RMK AO2 SLP264 T00001039

10-Day Weather Forecast

Almanac

Astronomy

Feb. 12, 2016 Rise Set
Actual Time
Civil Twilight
Nautical Twilight
Astronomical Twilight
Moon
Length of Visible Light
Length of Day
Tomorrow will be .
, % of the Moon is Illuminated

Today's Extremes

State Highs State Lows

Community

WunderPhotos

Upload Photos

1,892,309 photos uploaded!

WunderBlog® & News

Nearby

Air Quality

  Air Quality AQ Index Pollutant
Not available.

Snow Depth

Station Depth Elevation

Earthquake Activity

City Distance Mag. Time & Date
Minimum magnitude displayed is 2.5.

Coastal Water Temperatures

Place Temperature

Stations

Nearby Weather Stations

Station Location Temp. Windchill Dew Point Humidity Wind Precip. Elev Updated Type
                   

Watches & Warnings

There are currently no watches in effect.